Météo par heure à Jurkowice

Ce jour, 17 Juin, Jeudi

Heure Température Précipitation Vent Pression Humidité
00:00 +16°C° 0 mm 2 m/s 738 mmHg 93%
01:00 +16°C° 0 mm 2 m/s 738 mmHg 93%
02:00 +15°C° 0 mm 2 m/s 738 mmHg 93%
03:00 +15°C° 0 mm 1 m/s 738 mmHg 93%
04:00 +15°C° 0 mm 1 m/s 738 mmHg 94%
05:00 +16°C° 0 mm 2 m/s 738 mmHg 89%
06:00 +18°C° 0 mm 2 m/s 739 mmHg 85%
07:00 +20°C° 0 mm 3 m/s 739 mmHg 80%
08:00 +21°C° 0 mm 3 m/s 739 mmHg 72%
09:00 +22°C° 0 mm 3 m/s 740 mmHg 65%
10:00 +25°C° 0 mm 3 m/s 740 mmHg 58%
11:00 +25°C° 0 mm 3 m/s 740 mmHg 54%
12:00 +26°C° 0 mm 3 m/s 739 mmHg 50%
13:00 +27°C° 0 mm 3 m/s 739 mmHg 46%
14:00 +26°C° 0 mm 3 m/s 739 mmHg 47%
15:00 +26°C° 0 mm 3 m/s 739 mmHg 48%
16:00 +26°C° 0 mm 4 m/s 739 mmHg 50%
17:00 +24°C° 0 mm 3 m/s 739 mmHg 58%
18:00 +21°C° 0 mm 3 m/s 739 mmHg 65%
19:00 +20°C° 0 mm 3 m/s 739 mmHg 73%
20:00 +19°C° 0 mm 3 m/s 739 mmHg 76%
21:00 +17°C° 0 mm 2 m/s 739 mmHg 79%
22:00 +16°C° 0 mm 2 m/s 739 mmHg 82%
23:00 +16°C° 0 mm 2 m/s 739 mmHg 85%

Demain, 18 Juin, Vendredi

Heure Température Précipitation Vent Pression Humidité
00:00 +16°C° 0 mm 2 m/s 739 mmHg 88%
01:00 +16°C° 0 mm 2 m/s 739 mmHg 90%
02:00 +15°C° 0 mm 2 m/s 739 mmHg 91%
03:00 +15°C° 0 mm 2 m/s 739 mmHg 92%
04:00 +15°C° 0 mm 2 m/s 739 mmHg 93%
05:00 +17°C° 0 mm 3 m/s 739 mmHg 87%
06:00 +19°C° 0 mm 4 m/s 739 mmHg 80%
07:00 +21°C° 0 mm 4 m/s 739 mmHg 74%
08:00 +23°C° 0 mm 5 m/s 739 mmHg 68%
09:00 +25°C° 0 mm 5 m/s 739 mmHg 62%
10:00 +26°C° 0 mm 5 m/s 739 mmHg 56%
11:00 +27°C° 0 mm 5 m/s 739 mmHg 53%
12:00 +28°C° 0 mm 5 m/s 739 mmHg 51%
13:00 +28°C° 0 mm 5 m/s 739 mmHg 49%
14:00 +28°C° 0 mm 5 m/s 738 mmHg 51%
15:00 +28°C° 0 mm 5 m/s 738 mmHg 54%
16:00 +28°C° 0 mm 5 m/s 738 mmHg 56%
17:00 +26°C° 0 mm 4 m/s 738 mmHg 63%
18:00 +25°C° 0 mm 4 m/s 738 mmHg 69%
19:00 +22°C° 0 mm 3 m/s 738 mmHg 76%
20:00 +21°C° 0 mm 3 m/s 738 mmHg 80%
21:00 +19°C° 0 mm 3 m/s 738 mmHg 85%
22:00 +18°C° 0 mm 3 m/s 738 mmHg 90%
23:00 +18°C° 0 mm 3 m/s 738 mmHg 92%

Après-demain, 19 Juin, Samedi

Heure Température Précipitation Vent Pression Humidité
00:00 +18°C° 0 mm 3 m/s 738 mmHg 94%
01:00 +17°C° 0 mm 2 m/s 737 mmHg 95%
02:00 +17°C° 0 mm 2 m/s 737 mmHg 96%
03:00 +17°C° 0 mm 2 m/s 737 mmHg 96%
04:00 +17°C° 0 mm 2 m/s 737 mmHg 97%
05:00 +18°C° 0 mm 3 m/s 738 mmHg 90%
06:00 +20°C° 0 mm 4 m/s 738 mmHg 83%
07:00 +22°C° 0 mm 5 m/s 738 mmHg 77%
08:00 +23°C° 0 mm 5 m/s 738 mmHg 70%
09:00 +25°C° 0 mm 5 m/s 738 mmHg 63%
10:00 +27°C° 0 mm 6 m/s 738 mmHg 56%
11:00 +27°C° 0 mm 5 m/s 738 mmHg 54%
12:00 +28°C° 0 mm 5 m/s 737 mmHg 52%
13:00 +29°C° 0 mm 5 m/s 737 mmHg 51%
14:00 +28°C° 0 mm 5 m/s 737 mmHg 52%
15:00 +28°C° 0 mm 5 m/s 737 mmHg 54%
16:00 +28°C° 0 mm 5 m/s 737 mmHg 56%
17:00 +27°C° 0 mm 4 m/s 737 mmHg 63%
18:00 +25°C° 0 mm 4 m/s 737 mmHg 70%
19:00 +24°C° 0 mm 3 m/s 737 mmHg 77%
20:00 +21°C° 0 mm 3 m/s 737 mmHg 83%
21:00 +20°C° 0 mm 3 m/s 737 mmHg 88%
22:00 +18°C° 0 mm 2 m/s 737 mmHg 93%
23:00 +18°C° 0 mm 2 m/s 736 mmHg 94%

20 Juin, Dimanche

Heure Température Précipitation Vent Pression Humidité
00:00 +18°C° 0 mm 2 m/s 736 mmHg 94%
01:00 +17°C° 0 mm 2 m/s 736 mmHg 95%
02:00 +17°C° 0 mm 2 m/s 736 mmHg 96%
03:00 +17°C° 0 mm 2 m/s 736 mmHg 97%
04:00 +16°C° 0 mm 2 m/s 736 mmHg 97%
05:00 +18°C° 0 mm 3 m/s 736 mmHg 91%
06:00 +20°C° 0 mm 3 m/s 736 mmHg 84%
07:00 +21°C° 0 mm 4 m/s 736 mmHg 78%
08:00 +22°C° 0 mm 4 m/s 736 mmHg 72%
09:00 +25°C° 0 mm 5 m/s 736 mmHg 65%
10:00 +26°C° 0 mm 5 m/s 736 mmHg 59%
11:00 +27°C° 0 mm 5 m/s 735 mmHg 57%
12:00 +27°C° 0 mm 5 m/s 735 mmHg 54%
13:00 +28°C° 0 mm 5 m/s 735 mmHg 52%
14:00 +28°C° 0 mm 5 m/s 734 mmHg 53%
15:00 +28°C° 0 mm 5 m/s 734 mmHg 53%
16:00 +28°C° 0 mm 4 m/s 734 mmHg 54%
17:00 +27°C° 0 mm 4 m/s 734 mmHg 61%
18:00 +26°C° 0 mm 4 m/s 733 mmHg 67%
19:00 +23°C° 0 mm 4 m/s 733 mmHg 74%
20:00 +22°C° 0 mm 3 m/s 733 mmHg 79%
21:00 +21°C° 0 mm 3 m/s 733 mmHg 85%
22:00 +20°C° 0 mm 3 m/s 733 mmHg 90%
23:00 +19°C° 0 mm 3 m/s 733 mmHg 91%

21 Juin, Lundi

Heure Température Précipitation Vent Pression Humidité
00:00 +19°C° 0 mm 3 m/s 733 mmHg 93%
01:00 +18°C° 0 mm 3 m/s 732 mmHg 95%
02:00 +18°C° 0 mm 3 m/s 732 mmHg 95%
03:00 +17°C° 0 mm 3 m/s 732 mmHg 95%
04:00 +17°C° 0 mm 3 m/s 732 mmHg 95%
05:00 +19°C° 0 mm 4 m/s 732 mmHg 88%
06:00 +20°C° 0 mm 4 m/s 732 mmHg 81%
07:00 +22°C° 0 mm 5 m/s 732 mmHg 74%
08:00 +23°C° 0 mm 5 m/s 732 mmHg 68%
09:00 +26°C° 0 mm 5 m/s 732 mmHg 62%
10:00 +27°C° 0 mm 5 m/s 732 mmHg 56%
11:00 +28°C° 0 mm 4 m/s 732 mmHg 54%
12:00 +28°C° 0 mm 4 m/s 732 mmHg 52%
13:00 +29°C° 0 mm 4 m/s 732 mmHg 50%
14:00 +29°C° 0 mm 4 m/s 731 mmHg 50%
15:00 +29°C° 0 mm 4 m/s 731 mmHg 51%
16:00 +29°C° 0 mm 4 m/s 731 mmHg 51%
17:00 +28°C° 0 mm 3 m/s 731 mmHg 60%
18:00 +26°C° 0 mm 3 m/s 731 mmHg 68%
19:00 +24°C° 0 mm 3 m/s 731 mmHg 76%
20:00 +22°C° 0.1 mm 3 m/s 731 mmHg 81%
21:00 +21°C° 0.1 mm 3 m/s 730 mmHg 86%
22:00 +20°C° 0.1 mm 3 m/s 730 mmHg 91%
23:00 +19°C° 0 mm 3 m/s 730 mmHg 92%

22 Juin, Mardi

Heure Température Précipitation Vent Pression Humidité
00:00 +19°C° 0 mm 3 m/s 730 mmHg 93%
01:00 +19°C° 0 mm 3 m/s 730 mmHg 93%
02:00 +19°C° 0 mm 3 m/s 730 mmHg 92%
03:00 +18°C° 0 mm 2 m/s 730 mmHg 92%
04:00 +18°C° 0 mm 2 m/s 730 mmHg 91%
05:00 +20°C° 0 mm 3 m/s 730 mmHg 84%
06:00 +22°C° 0 mm 3 m/s 730 mmHg 77%
07:00 +25°C° 0 mm 4 m/s 730 mmHg 70%
08:00 +26°C° 0.1 mm 4 m/s 730 mmHg 66%
09:00 +28°C° 0.1 mm 4 m/s 731 mmHg 62%
10:00 +29°C° 0.1 mm 4 m/s 731 mmHg 58%
11:00 +29°C° 0.1 mm 3 m/s 731 mmHg 57%
12:00 +30°C° 0.1 mm 3 m/s 731 mmHg 56%
13:00 +30°C° 0.1 mm 3 m/s 731 mmHg 55%
14:00 +29°C° 0.6 mm 3 m/s 731 mmHg 60%
15:00 +28°C° 0.6 mm 3 m/s 732 mmHg 65%
16:00 +28°C° 0.6 mm 3 m/s 732 mmHg 70%
17:00 +26°C° 1 mm 3 m/s 732 mmHg 75%
18:00 +25°C° 1 mm 4 m/s 732 mmHg 80%
19:00 +22°C° 1 mm 4 m/s 733 mmHg 85%
20:00 +21°C° 0.2 mm 3 m/s 733 mmHg 87%
21:00 +20°C° 0.2 mm 3 m/s 733 mmHg 90%
22:00 +19°C° 0.2 mm 2 m/s 733 mmHg 92%
23:00 +19°C° 0 mm 2 m/s 733 mmHg 92%
Voir plus

Nous avons besoin de votre consentement

Meteoprog et ses fournisseurs de services peuvent stocker et accéder à des données personnelles telles que des cookies, des identifiants d'appareils ou d'autres technologies similaires sur votre appareil et traiter ces données pour personnaliser le contenu et les publicités, ainsi que pour fournir des fonctionnalités de médias sociaux et analyser le trafic.

  • Stocker et/ou accéder à des informations sur votre appareil

    Des cookies, des identifiants d'appareils ou d'autres informations peuvent être stockés ou accessibles sur votre appareil aux fins indiquées ci-dessus.

  • Annonces et contenus personnalisés, mesure des annonces et des contenus, connaissance de l'audience et développement de produits

    Les annonces et le contenu peuvent être personnalisés en fonction d'un profil. D'autres données peuvent être ajoutées pour mieux personnaliser les annonces et le contenu. Les performances des publicités et du contenu peuvent être mesurées. Il est possible d'obtenir des informations sur le public qui a vu les publicités et le contenu. Ces données peuvent être utilisées pour développer ou améliorer l'expérience de l'utilisateur, les systèmes et les logiciels.

En cliquant sur "J'accepte", vous autorisez l'utilisation de cookies, des identifiants d'appareils, des balises web ou d'autres technologies similaires. Vos paramètres peuvent être modifiés dans le navigateur de votre appareil.

Dans certains cas, des intérêts légitimes peuvent être invoqués plutôt qu'un consentement. Vous pouvez en savoir plus à ce sujet dans notre Politique de confidentialité et de cookies.